Time,TemperatureF,DewpointF,PressureIn,WindDirection,WindDirectionDegrees,WindSpeedMPH,WindSpeedGustMPH,Humidity,HourlyPrecipIn,Conditions,Clouds,dailyrainin,SolarRadiationWatts/m^2,SoftwareType,DateUTC
2013-09-21 00:03:00,49.0,44.0,-100.00,NNW,332,5.0,11.0,84,0.00,,,0.10,0.000000,,2013-09-21 05:03:00,
2013-09-21 00:44:00,48.0,42.0,-100.00,NW,324,7.0,13.0,79,0.00,,,0.10,0.000000,,2013-09-21 05:44:00,
2013-09-21 00:53:00,48.0,42.0,-100.00,NW,324,7.0,13.0,79,0.00,,,0.10,0.000000,,2013-09-21 05:53:00,
2013-09-21 01:02:00,48.0,42.0,-100.00,NW,324,7.0,13.0,79,0.00,,,0.10,0.000000,,2013-09-21 06:02:00,
2013-09-21 01:42:00,48.0,41.0,-100.00,NW,309,5.0,17.0,76,0.00,,,0.10,0.000000,,2013-09-21 06:42:00,
2013-09-21 01:53:00,48.0,41.0,-100.00,NW,309,5.0,17.0,76,0.00,,,0.10,0.000000,,2013-09-21 06:53:00,
2013-09-21 02:01:00,48.0,41.0,-100.00,NW,309,5.0,17.0,76,0.00,,,0.10,0.000000,,2013-09-21 07:01:00,
2013-09-21 02:42:00,47.0,40.0,-100.00,NW,324,6.0,12.0,77,0.00,,,0.10,0.000000,,2013-09-21 07:42:00,
2013-09-21 02:52:00,47.0,40.0,-100.00,NW,324,6.0,12.0,77,0.00,,,0.10,0.000000,,2013-09-21 07:52:00,
2013-09-21 03:03:00,47.0,40.0,-100.00,NW,324,6.0,12.0,77,0.00,,,0.10,0.000000,,2013-09-21 08:03:00,
2013-09-21 03:42:00,45.0,41.0,-100.00,NW,312,3.0,10.0,87,0.00,,,0.10,0.000000,,2013-09-21 08:42:00,
2013-09-21 03:52:00,45.0,41.0,-100.00,NW,312,3.0,10.0,87,0.00,,,0.10,0.000000,,2013-09-21 08:52:00,
2013-09-21 04:02:00,45.0,41.0,-100.00,NW,312,3.0,10.0,87,0.00,,,0.10,0.000000,,2013-09-21 09:02:00,
2013-09-21 04:43:00,42.0,40.0,-100.00,NW,305,3.0,8.0,94,0.00,,,0.10,0.000000,,2013-09-21 09:43:00,
2013-09-21 04:54:00,42.0,40.0,-100.00,NW,305,3.0,8.0,94,0.00,,,0.10,0.000000,,2013-09-21 09:54:00,
2013-09-21 05:03:00,42.0,40.0,-100.00,NW,305,3.0,8.0,94,0.00,,,0.10,0.000000,,2013-09-21 10:03:00,
2013-09-21 05:42:00,41.0,40.0,-100.00,NW,311,2.0,5.0,97,0.00,,,0.10,0.000000,,2013-09-21 10:42:00,
2013-09-21 05:52:00,41.0,40.0,-100.00,NW,311,2.0,5.0,97,0.00,,,0.10,0.000000,,2013-09-21 10:52:00,
2013-09-21 06:03:00,41.0,40.0,-100.00,NW,311,2.0,5.0,97,0.00,,,0.10,0.000000,,2013-09-21 11:03:00,
2013-09-21 06:42:00,41.0,40.0,-100.00,NW,314,0.0,5.0,97,0.00,,,0.05,0.000000,,2013-09-21 11:42:00,
2013-09-21 06:52:00,41.0,40.0,-100.00,NW,314,0.0,5.0,97,0.00,,,0.05,0.000000,,2013-09-21 11:52:00,
2013-09-21 07:02:00,41.0,40.0,-100.00,NW,314,0.0,5.0,97,0.00,,,0.05,0.000000,,2013-09-21 12:02:00,
2013-09-21 07:42:00,43.0,41.0,-100.00,NW,311,2.0,4.0,94,0.00,,,0.04,0.000000,,2013-09-21 12:42:00,
2013-09-21 07:52:00,43.0,41.0,-100.00,NW,311,2.0,4.0,94,0.00,,,0.04,0.000000,,2013-09-21 12:52:00,
2013-09-21 08:02:00,43.0,41.0,-100.00,NW,311,2.0,4.0,94,0.00,,,0.04,0.000000,,2013-09-21 13:02:00,
2013-09-21 08:42:00,44.0,41.0,-100.00,NNW,348,2.0,5.0,88,0.00,,,0.04,24.000000,,2013-09-21 13:42:00,
2013-09-21 08:52:00,44.0,41.0,-100.00,NNW,348,2.0,5.0,88,0.00,,,0.04,24.000000,,2013-09-21 13:52:00,
2013-09-21 09:02:00,44.0,41.0,-100.00,NNW,348,2.0,5.0,88,0.00,,,0.04,24.000000,,2013-09-21 14:02:00,
2013-09-21 09:42:00,46.0,40.0,-100.00,NNW,342,3.0,8.0,80,0.00,,,0.04,96.000000,,2013-09-21 14:42:00,
2013-09-21 09:52:00,46.0,40.0,-100.00,NNW,342,3.0,8.0,80,0.00,,,0.04,96.000000,,2013-09-21 14:52:00,
2013-09-21 10:01:00,46.0,40.0,-100.00,NNW,342,3.0,8.0,80,0.00,,,0.04,96.000000,,2013-09-21 15:01:00,
2013-09-21 10:45:00,47.0,40.0,-100.00,NNE,12,5.0,10.0,76,0.00,,,0.04,240.000000,,2013-09-21 15:45:00,
2013-09-21 10:55:00,47.0,40.0,-100.00,NNE,12,5.0,10.0,76,0.00,,,0.04,240.000000,,2013-09-21 15:55:00,
2013-09-21 11:05:00,47.0,40.0,-100.00,NNE,12,5.0,10.0,76,0.00,,,0.04,240.000000,,2013-09-21 16:05:00,
2013-09-21 11:43:00,49.0,41.0,-100.00,ENE,73,2.0,7.0,73,0.00,,,0.04,319.000000,,2013-09-21 16:43:00,
2013-09-21 11:54:00,49.0,41.0,-100.00,ENE,73,2.0,7.0,73,0.00,,,0.04,319.000000,,2013-09-21 16:54:00,
2013-09-21 12:03:00,49.0,41.0,-100.00,ENE,73,2.0,7.0,73,0.00,,,0.04,319.000000,,2013-09-21 17:03:00,
2013-09-21 12:43:00,50.0,42.0,-100.00,North,359,4.0,7.0,73,0.00,,,0.04,423.000000,,2013-09-21 17:43:00,
2013-09-21 12:52:00,50.0,42.0,-100.00,North,359,4.0,7.0,73,0.00,,,0.04,423.000000,,2013-09-21 17:52:00,
2013-09-21 13:02:00,50.0,42.0,-100.00,North,359,4.0,7.0,73,0.00,,,0.04,423.000000,,2013-09-21 18:02:00,
2013-09-21 13:42:00,56.0,42.0,-100.00,WNW,302,3.0,7.0,60,0.00,,,0.04,810.000000,,2013-09-21 18:42:00,
2013-09-21 13:52:00,56.0,42.0,-100.00,WNW,302,3.0,7.0,60,0.00,,,0.04,810.000000,,2013-09-21 18:52:00,
2013-09-21 14:02:00,56.0,42.0,-100.00,WNW,302,3.0,7.0,60,0.00,,,0.04,810.000000,,2013-09-21 19:02:00,
2013-09-21 14:42:00,56.0,42.0,-100.00,North,359,4.0,8.0,59,0.00,,,0.04,891.000000,,2013-09-21 19:42:00,
2013-09-21 14:52:00,56.0,42.0,-100.00,North,359,4.0,8.0,59,0.00,,,0.04,891.000000,,2013-09-21 19:52:00,
2013-09-21 15:02:00,56.0,42.0,-100.00,North,359,4.0,8.0,59,0.00,,,0.04,891.000000,,2013-09-21 20:02:00,
2013-09-21 15:43:00,60.0,44.0,-100.00,ESE,103,2.0,6.0,55,0.00,,,0.04,838.000000,,2013-09-21 20:43:00,
2013-09-21 15:52:00,60.0,44.0,-100.00,ESE,103,2.0,6.0,55,0.00,,,0.04,838.000000,,2013-09-21 20:52:00,
2013-09-21 16:02:00,60.0,44.0,-100.00,ESE,103,2.0,6.0,55,0.00,,,0.04,838.000000,,2013-09-21 21:02:00,
2013-09-21 16:45:00,60.0,43.0,-100.00,NNE,22,3.0,6.0,53,0.00,,,0.03,717.000000,,2013-09-21 21:45:00,
2013-09-21 16:54:00,60.0,43.0,-100.00,NNE,22,3.0,6.0,53,0.00,,,0.03,717.000000,,2013-09-21 21:54:00,
2013-09-21 17:05:00,60.0,43.0,-100.00,NNE,22,3.0,6.0,53,0.00,,,0.03,717.000000,,2013-09-21 22:05:00,
2013-09-21 17:43:00,61.0,42.0,-100.00,ENE,60,2.0,5.0,50,0.00,,,0.03,551.000000,,2013-09-21 22:43:00,
2013-09-21 17:53:00,61.0,42.0,-100.00,ENE,60,2.0,5.0,50,0.00,,,0.03,551.000000,,2013-09-21 22:53:00,
2013-09-21 18:03:00,61.0,42.0,-100.00,ENE,60,2.0,5.0,50,0.00,,,0.03,551.000000,,2013-09-21 23:03:00,
2013-09-21 18:42:00,60.0,43.0,-100.00,NE,52,2.0,6.0,53,0.00,,,0.01,345.000000,,2013-09-21 23:42:00,
2013-09-21 18:53:00,60.0,43.0,-100.00,NE,52,2.0,6.0,53,0.00,,,0.01,345.000000,,2013-09-21 23:53:00,
2013-09-21 19:02:00,60.0,43.0,-100.00,NE,52,2.0,6.0,53,0.00,,,0.01,345.000000,,2013-09-22 00:02:00,
2013-09-21 19:43:00,53.0,43.0,-100.00,ENE,74,2.0,6.0,69,0.00,,,0.01,76.000000,,2013-09-22 00:43:00,
2013-09-21 19:52:00,53.0,43.0,-100.00,ENE,74,2.0,6.0,69,0.00,,,0.01,76.000000,,2013-09-22 00:52:00,
2013-09-21 20:02:00,53.0,43.0,-100.00,ENE,74,2.0,6.0,69,0.00,,,0.01,76.000000,,2013-09-22 01:02:00,
2013-09-21 20:42:00,46.0,42.0,-100.00,East,83,2.0,3.0,87,0.00,,,0.01,3.000000,,2013-09-22 01:42:00,
2013-09-21 20:52:00,46.0,42.0,-100.00,East,83,2.0,3.0,87,0.00,,,0.01,3.000000,,2013-09-22 01:52:00,
2013-09-21 21:02:00,46.0,42.0,-100.00,East,83,2.0,3.0,87,0.00,,,0.01,3.000000,,2013-09-22 02:02:00,
2013-09-21 21:42:00,43.0,41.0,-100.00,East,81,2.0,3.0,93,0.00,,,0.00,0.000000,,2013-09-22 02:42:00,
2013-09-21 21:52:00,43.0,41.0,-100.00,East,81,2.0,3.0,93,0.00,,,0.00,0.000000,,2013-09-22 02:52:00,
2013-09-21 22:02:00,43.0,41.0,-100.00,East,81,2.0,3.0,93,0.00,,,0.00,0.000000,,2013-09-22 03:02:00,
2013-09-21 22:45:00,40.0,39.0,-100.00,ENE,57,0.0,3.0,95,0.00,,,0.00,0.000000,,2013-09-22 03:45:00,
2013-09-21 22:54:00,40.0,39.0,-100.00,ENE,57,0.0,3.0,95,0.00,,,0.00,0.000000,,2013-09-22 03:54:00,
2013-09-21 23:02:00,-999.0,-99.9,-100.00,ENE,57,0.0,3.0,-999,-99.99,,,-99.99,0.000000,,2013-09-22 04:02:00,
2013-09-21 23:44:00,38.0,37.0,-100.00,ENE,73,2.0,3.0,96,0.00,,,0.00,0.000000,,2013-09-22 04:44:00,
2013-09-21 23:54:00,38.0,37.0,-100.00,ENE,73,2.0,3.0,96,0.00,,,0.00,0.000000,,2013-09-22 04:54:00,